sat.trackr.live / text

‹ back to catalog

STARLINK-35815

NORAD 66577 · 2025-268W

PAYLOAD ACTIVE UNKNOWN

§ Identity

Operator
Country
US
Launch date
2025-11-21
Launch site
AFETR
Launch vehicle
Mass (kg)
RCS (m²)

Purposes: comms

External: N2YO · Heavens-Above · Gunter

§ Orbital elements

Epoch: 2026-05-25T02:06:16.792704Z

Period
94.27 min
Inclination
43.0004°
Eccentricity
0.0001199
Mean motion
15.27582580 rev/d
Perigee alt
482.2 km
Apogee alt
483.9 km
Semi-major
6,861.2 km
B*
6.4411e-4
RAAN
275.6218°
Arg perigee
259.1460°
Mean anomaly
100.9257°
Rev number
2,964

§ Raw data

STARLINK-358151 66577U 25268W   26145.08769436  .00017506  00000+0  64411-3 0  99922 66577  43.0004 275.6218 0001199 259.1460 100.9257 15.27582580 29640

JSON: /api/v1/satellites/66577 · /tle

For live sub-satellite position, see the globe view (requires WebGL).

§ Visibility from observer

Set your observer location to see the next 7 days of passes ≥ 10°. The values pass through the URL so the page stays shareable.

No JS? Fill the form by hand. The geolocation button needs JavaScript.